Вернуться в каталог

SL-19 DEB

АктивенUNKNOWN
NORAD 23493·DEBRIS·🇷🇺 Russia

Запущен Dec 26, 1994 с Baikonur Cosmodrome

Loading…

Ближайшие Пролёты (ближайшие 24 часа)

TLE

СвежийSource: Space-Track

Эпоха: Sep 14, 2026, 13:03 UTC

1 23493U 94085R   26257.54401206  .00000075  00000-0  31847-2 0  9998
2 23493  64.9382  90.7587 0145498 161.3704 229.0307 11.31975294310575

Отслеживайте SL-19 DEB в реальном времени с AllMySat

Download on the App Store